Regional Weather Roundup
Issued by NWS

Home | Current Version | Previous Version | Graphics & Text | Print | Product List | Glossary On
Versions: 1 2 3 4 5 6 7 8 9 10 11 12 13 14 15 16 17 18 19 20 21 22 23 24 25 26 27 28 29 30 31 32 33 34 35 36 37 38 39 40 41 42 43 44 45 46 47 48 49 50
000
ASUS43 KDMX 270107
RWRIA

WEATHER ROUNDUP FOR IOWA
NATIONAL WEATHER SERVICE DES MOINES IA
700 PM CST WED NOV 26 2014

NOTE: "FAIR" INDICATES FEW OR NO CLOUDS BELOW 12,000 FEET WITH NO
SIGNIFICANT WEATHER AND/OR OBSTRUCTIONS TO VISIBILITY.

* - THESE STATIONS ARE NOT NWS STATIONS...THUS NOT UNDER NWS
QUALITY CONTROL.  THEY ALSO DO NOT REPORT WEATHER SUCH
AS PRECIPITATION OR FOG.

IAZ001>003-012>014-020>022-031>034-043>046-270200-
   NORTHWEST IOWA

CITY           SKY/WX    TMP DP  RH WIND       PRES   REMARKS
CARROLL *      CLOUDY    21  19  93 N23G29    30.30R WCI   5
CHEROKEE *     CLOUDY    19  16  86 NW12G20   30.36R WCI   7
DENISON *      CLOUDY    21  18  86 N17G23    30.32R WCI   7
LE MARS *      CLOUDY    18  12  79 MISG      30.39R
ORANGE CITY *  PTCLDY    16   9  73 N10       30.36R WCI   3
SHELDON *      PTCLDY    10   5  79 N15       30.35R WCI  -6
SIOUX CITY     CLOUDY    22  16  78 N17       30.38R WCI   8
SPENCER        LGT SNOW  16  12  84 N15       30.34R FOG     WCI   1
STORM LAKE *   CLOUDY    19  16  86 N14       30.32R WCI   6
$$

IAZ055>058-069>071-079>083-090>094-270200-
   SOUTHWEST IOWA

CITY           SKY/WX    TMP DP  RH WIND       PRES   REMARKS
ATLANTIC *     CLOUDY    23  19  86 N22G32    30.30R WCI   8
AUDUBON *      CLEAR     21  16  79 N16G23    30.29R WCI   7
CLARINDA *     CLOUDY    27  23  86 N23G31    30.31R WCI  12
COUNCIL BLFS * CLOUDY    25  23  93 NW14      30.32R WCI  13
CRESTON *      FLURRIES  27  23  86 N17G25    30.24R WCI  14
HARLAN  *      CLOUDY    23  21  93 N22G32    30.35R WCI   8
LAMONI         CLOUDY    29  26  89 N14       30.20R WCI  18
RED OAK *      CLOUDY    25  21  86 N18G26    30.32R WCI  11
SHENANDOAH *   CLOUDY    27  21  80 N18G29    30.33R WCI  13
$$

IAZ047>049-059>061-072>074-084-270200-
   CENTRAL IOWA

CITY           SKY/WX    TMP DP  RH WIND       PRES   REMARKS
AMES           LGT SNOW  27  24  89 N14       30.24R FOG     WCI  16
ANKENY *       LGT SNOW  28  27  93 N13       30.24R WCI  18
CHARITON *     LGT RAIN  30  28  93 N16       30.19R WCI  19
DES MOINES     LGT SNOW  30  26  85 N14       30.24R FOG     WCI  19
GRINNELL*      LGT SNOW  28  27  93 N15G22    30.20R WCI  17
KNOXVILLE *    LGT RAIN  30  27  86 N10G18    30.19R WCI  21
MARSHALLTOWN   LGT SNOW  27  25  92 N12       30.21R FOG     WCI  17
PELLA *        LGT SNOW  30  28  93 NE9G16    30.21R WCI  22
PERRY *        LGT SNOW  27  25  93 N16G24    30.28R WCI  14
$$

IAZ004>006-015-016-023>025-035-036-270200-
   NORTH CENTRAL IOWA

CITY           SKY/WX    TMP DP  RH WIND       PRES   REMARKS
ALGONA *       CLOUDY    19  16  86 N20G26    30.30R WCI   4
CLARION *      CLOUDY    25  25 100 N18       30.26R WCI  11
ESTHERVILLE    CLOUDY    14  11  87 NW23      30.31R WCI  -5
FORT DODGE *   CLOUDY    21  16  79 N8G20     30.30R WCI  12
MASON CITY     CLOUDY    24  21  88 N15       30.26R WCI  11
FOREST CITY *  CLOUDY    25  23  93 N14G23    30.26R WCI  13
IOWA FALLS *   FLURRIES  27  23  86 N9        30.24R WCI  17
$$

IAZ007>011-017>019-026>030-037>042-050>054-066-270200-
   NORTHEAST IOWA

CITY           SKY/WX    TMP DP  RH WIND       PRES   REMARKS
CEDAR RAPIDS   LGT SNOW  27  24  89 N14       30.19R FOG     WCI  16
CHARLES CITY * MIX PCPN  25  23  93 N8        30.23S WCI  16
CLINTON *      CLOUDY    27  19  74 NE8       30.21R WCI  18
DECORAH *      LGT SNOW  23  21  93 N9        30.21R WCI  13
DUBUQUE        CLOUDY    24  21  88 N9        30.18R WCI  14
MONTICELLO *   CLOUDY    27  25  93 N9        30.20R FOG     WCI  17
OELWEIN *      LGT SNOW  27  23  86 N8G17     30.22R WCI  18
WATERLOO       LGT SNOW  26  24  92 N10       30.22R FOG     WCI  16
$$

IAZ064-065-067-068-078-270200-
   EAST CENTRAL IOWA

CITY           SKY/WX    TMP DP  RH WIND       PRES   REMARKS
DAVENPORT      CLOUDY    26  20  77 NE12      30.19R WCI  16
IOWA CITY      LGT SNOW  29  26  89 NE7       30.21R FOG     WCI  22
MT. PLEASANT * LGT SNOW  28  28 100 N10       30.16R WCI  19
MUSCATINE *    MIX PCPN  28  25  86 NE14      30.20R WCI  17
QUAD CITIES    CLOUDY    28  22  78 NE10      30.18R WCI  19
$$

IAZ062-063-075>077-085>089-095>099-270200-
   SOUTHEAST IOWA

CITY           SKY/WX    TMP DP  RH WIND       PRES   REMARKS
BURLINGTON     LGT SNOW  29  28  96 NE15      30.15R FOG     WCI  18
FAIRFIELD *    LGT SNOW  28  27  93 N14       30.17R WCI  17
FORT MADISON * LGT SNOW  30  30 100 NE6       30.15R WCI  24
KEOKUK *       LGT SNOW  30  30 100 NE6G12    30.13R WCI  24
OSKALOOSA *    LGT SNOW  28  27  93 NE14      30.19R WCI  17
CENTERVILLE *  FLURRIES  28  28 100 N10G16    30.17R WCI  19
OTTUMWA        LGT SNOW  29  26  89 N13       30.18R FOG     WCI  19
WASHINGTON *   LGT SNOW  28  28 100 NE13      30.18R WCI  18
$$

ABBREVIATIONS USED IN REMARKS
   TC - TEMPERATURES IN CELSIUS
  WCI - WIND CHILL INDEX
   HX - HEAT INDEX
  VSB - VISIBILITY
$$



USA.gov is the U.S. government's official web portal to all federal, state and local government web resources and services.